sat.trackr.live / text

‹ back to catalog

STARLINK-32520

NORAD 62021 · 2024-213P

PAYLOAD ACTIVE UNKNOWN

§ Identity

Operator
Country
US
Launch date
2024-11-18
Launch site
AFWTR
Launch vehicle
Mass (kg)
RCS (m²)

Purposes: comms

External: N2YO · Heavens-Above · Gunter

§ Orbital elements

Epoch: 2026-05-25T01:32:16.180224Z

Period
94.10 min
Inclination
53.1584°
Eccentricity
0.0001222
Mean motion
15.30206180 rev/d
Perigee alt
474.4 km
Apogee alt
476.0 km
Semi-major
6,853.3 km
B*
4.0947e-4
RAAN
173.6869°
Arg perigee
82.8043°
Mean anomaly
277.3096°
Rev number
8,484

§ Raw data

STARLINK-325201 62021U 24213P   26145.06407616  .00011790  00000+0  40947-3 0  99952 62021  53.1584 173.6869 0001222  82.8043 277.3096 15.30206180 84845

JSON: /api/v1/satellites/62021 · /tle

For live sub-satellite position, see the globe view (requires WebGL).

§ Visibility from observer

Set your observer location to see the next 7 days of passes ≥ 10°. The values pass through the URL so the page stays shareable.

No JS? Fill the form by hand. The geolocation button needs JavaScript.